EXS87VX LEPA-EGCC

Flight info

Callsign EXS87VX
Flight time 2h 8m
Altitude 40000
Route DRAGO DCT PAPOS DCT UMURE N863 GIROM DCT AGN DCT SECHE DCT UVELI DCT CNA DCT TUPAR UN861 ANG DCT AKIKI UN867 AVANT UM184 HEMEL T420 ELVOS
Aircraft A332/H-SDE3GHIJ2J3J5M1RVWXY/LB2D1

Departure

Time 2026-05-04 15:56
Airport Palma de Mallorca Airport (LEPA)

Arrival

Time 2026-05-04 18:05
Airport Manchester Airport (EGCC)
Time Latitude Longitude Altitude Speed Heading
2026-05-04 15:21 39.55099 2.72903 42 ft 0 kts 164°
2026-05-04 15:46 39.55122 2.72894 39 ft 4 kts 155°
2026-05-04 15:46 39.55145 2.72876 39 ft 4 kts 135°
2026-05-04 15:47 39.55157 2.72850 38 ft 4 kts 82°
2026-05-04 15:47 39.55155 2.72839 38 ft 0 kts 58°
2026-05-04 15:49 39.55157 2.72842 38 ft 2 kts 58°
2026-05-04 15:49 39.55172 2.72873 38 ft 6 kts 58°
2026-05-04 15:50 39.55202 2.72938 42 ft 10 kts 59°
2026-05-04 15:50 39.55245 2.73030 42 ft 13 kts 58°
2026-05-04 15:50 39.55298 2.73141 42 ft 16 kts 58°
2026-05-04 15:50 39.55360 2.73270 42 ft 18 kts 58°
2026-05-04 15:51 39.55429 2.73416 42 ft 20 kts 58°
2026-05-04 15:51 39.55494 2.73549 42 ft 12 kts 45°
2026-05-04 15:51 39.55570 2.73539 42 ft 13 kts 329°
2026-05-04 15:51 39.55657 2.73522 42 ft 13 kts 37°
2026-05-04 15:52 39.55725 2.73651 42 ft 22 kts 58°
2026-05-04 15:52 39.55818 2.73847 42 ft 27 kts 59°
2026-05-04 15:52 39.55909 2.74040 42 ft 21 kts 58°
2026-05-04 15:52 39.55988 2.74208 42 ft 23 kts 58°
2026-05-04 15:53 39.56054 2.74347 42 ft 9 kts 58°
2026-05-04 15:53 39.56064 2.74370 42 ft 4 kts 58°
2026-05-04 15:53 39.56086 2.74412 42 ft 7 kts 52°
2026-05-04 15:53 39.56127 2.74448 42 ft 6 kts 24°
2026-05-04 15:54 39.56154 2.74451 42 ft 6 kts 353°
2026-05-04 15:54 39.56205 2.74415 40 ft 10 kts 327°
2026-05-04 15:54 39.56250 2.74341 42 ft 11 kts 281°
2026-05-04 15:54 39.56230 2.74272 42 ft 0 kts 240°
2026-05-04 15:56 39.56211 2.74229 42 ft 22 kts 240°
2026-05-04 15:56 39.56005 2.73797 42 ft 92 kts 239°
2026-05-04 15:56 39.55555 2.72840 62 ft 152 kts 237°
2026-05-04 15:56 39.54988 2.71650 907 ft 154 kts 234°
2026-05-04 15:57 39.54421 2.70481 1966 ft 150 kts 237°
2026-05-04 15:57 39.53832 2.69300 2655 ft 167 kts 237°
2026-05-04 15:57 39.53141 2.67955 3210 ft 188 kts 236°
2026-05-04 15:57 39.52392 2.66496 3996 ft 200 kts 236°
2026-05-04 15:58 39.51673 2.64865 4674 ft 222 kts 247°
2026-05-04 15:58 39.51407 2.62798 5293 ft 245 kts 273°
2026-05-04 15:58 39.52030 2.60686 6164 ft 260 kts 297°
2026-05-04 15:58 39.53089 2.58745 7115 ft 267 kts 302°
2026-05-04 15:59 39.54231 2.56825 8103 ft 271 kts 302°
2026-05-04 15:59 39.55375 2.54911 9167 ft 273 kts 302°
2026-05-04 15:59 39.56541 2.52946 10138 ft 278 kts 302°
2026-05-04 15:59 39.57755 2.50881 10674 ft 299 kts 302°
2026-05-04 16:00 39.59058 2.48656 11190 ft 317 kts 302°
2026-05-04 16:00 39.60409 2.46351 11943 ft 325 kts 302°
2026-05-04 16:00 39.61790 2.43999 12823 ft 330 kts 303°
2026-05-04 16:00 39.63187 2.41613 13726 ft 334 kts 303°
2026-05-04 16:01 39.64600 2.39197 14524 ft 337 kts 303°
2026-05-04 16:01 39.66023 2.36761 15343 ft 340 kts 302°
2026-05-04 16:01 39.67457 2.34303 16175 ft 342 kts 302°
2026-05-04 16:01 39.68900 2.31825 16995 ft 345 kts 302°
2026-05-04 16:02 39.70353 2.29329 17811 ft 348 kts 302°
2026-05-04 16:02 39.71816 2.26814 18587 ft 350 kts 301°
2026-05-04 16:02 39.74768 2.21729 19891 ft 358 kts 301°
2026-05-04 16:03 39.76271 2.19135 20555 ft 361 kts 300°
2026-05-04 16:03 39.77792 2.16510 21225 ft 364 kts 300°
2026-05-04 16:03 39.79326 2.13860 21855 ft 369 kts 300°
2026-05-04 16:03 39.80877 2.11178 22442 ft 373 kts 300°
2026-05-04 16:04 39.82445 2.08466 23075 ft 376 kts 300°
2026-05-04 16:04 39.85616 2.02972 24152 ft 383 kts 299°
2026-05-04 16:04 39.87221 2.00190 24636 ft 386 kts 299°
2026-05-04 16:05 39.88843 1.97374 25115 ft 390 kts 299°
2026-05-04 16:05 39.90452 1.94578 25583 ft 393 kts 299°
2026-05-04 16:05 39.93754 1.88833 26546 ft 398 kts 299°
2026-05-04 16:06 39.95419 1.85932 27037 ft 401 kts 299°
2026-05-04 16:06 40.00201 1.78323 28247 ft 420 kts 310°
2026-05-04 16:07 40.03474 1.75323 28830 ft 441 kts 324°
2026-05-04 16:07 40.12144 1.70516 30083 ft 459 kts 331°
2026-05-04 16:08 40.15115 1.69063 30443 ft 462 kts 332°
2026-05-04 16:08 40.24203 1.64542 31591 ft 468 kts 330°
2026-05-04 16:09 40.30296 1.61419 32434 ft 470 kts 330°
2026-05-04 16:09 40.36348 1.58298 33521 ft 465 kts 330°
2026-05-04 16:10 40.42320 1.55207 34425 ft 463 kts 330°
2026-05-04 16:11 40.51273 1.50559 35619 ft 461 kts 330°
2026-05-04 16:11 40.54251 1.49009 35997 ft 460 kts 330°
2026-05-04 16:12 40.63163 1.44369 37117 ft 457 kts 330°
2026-05-04 16:12 40.72012 1.39748 38226 ft 455 kts 330°
2026-05-04 16:13 40.77882 1.36676 38834 ft 453 kts 330°
2026-05-04 16:13 40.83738 1.33604 39353 ft 452 kts 330°
2026-05-04 16:14 40.89582 1.30532 39835 ft 452 kts 330°
2026-05-04 16:14 40.95449 1.27434 39924 ft 462 kts 331°
2026-05-04 16:16 41.10460 1.19511 39938 ft 464 kts 331°
2026-05-04 16:16 41.20020 1.16584 39938 ft 479 kts 347°
2026-05-04 16:17 41.26681 1.15801 39936 ft 481 kts 349°
2026-05-04 16:18 41.40022 1.14482 39935 ft 482 kts 350°
2026-05-04 16:19 41.56688 1.12741 39906 ft 479 kts 349°
2026-05-04 16:20 41.73276 1.10980 39915 ft 479 kts 350°
2026-05-04 16:22 41.89924 1.09205 39951 ft 481 kts 350°
2026-05-04 16:23 42.05497 1.07540 39949 ft 482 kts 350°
2026-05-04 16:25 42.23372 1.05618 39923 ft 483 kts 350°
2026-05-04 16:26 42.46829 1.03079 39915 ft 484 kts 351°
2026-05-04 16:28 42.63667 1.01246 39919 ft 484 kts 351°
2026-05-04 16:29 42.87168 0.98660 39927 ft 484 kts 351°
2026-05-04 16:31 43.03981 0.96808 39959 ft 484 kts 351°
2026-05-04 16:32 43.24086 0.94576 39963 ft 483 kts 351°
2026-05-04 16:33 43.37466 0.93081 39948 ft 483 kts 351°
2026-05-04 16:34 43.46383 0.92081 39949 ft 483 kts 351°
2026-05-04 16:35 43.66472 0.89820 39946 ft 483 kts 351°
2026-05-04 16:36 43.76510 0.88685 39935 ft 483 kts 351°
2026-05-04 16:37 43.86544 0.87419 39932 ft 480 kts 346°
2026-05-04 16:37 43.92831 0.84653 39930 ft 473 kts 333°
2026-05-04 16:38 43.98838 0.80949 39930 ft 472 kts 330°
2026-05-04 16:39 44.13695 0.71223 39941 ft 475 kts 331°
2026-05-04 16:40 44.25688 0.63422 39939 ft 475 kts 331°
2026-05-04 16:41 44.40658 0.53641 39913 ft 476 kts 331°
2026-05-04 16:43 44.55668 0.43718 39922 ft 477 kts 330°
2026-05-04 16:43 44.64640 0.37744 39941 ft 477 kts 330°
2026-05-04 16:45 44.82628 0.25710 39930 ft 477 kts 331°
2026-05-04 16:46 44.97621 0.15617 39923 ft 477 kts 330°
2026-05-04 16:47 45.09610 0.07503 39919 ft 477 kts 330°
2026-05-04 16:48 45.21581 -0.00639 39934 ft 477 kts 331°
2026-05-04 16:49 45.33494 -0.08778 39916 ft 476 kts 331°
2026-05-04 16:50 45.45402 -0.16952 39929 ft 475 kts 331°
2026-05-04 16:51 45.54333 -0.23107 39937 ft 475 kts 331°
2026-05-04 16:52 45.66312 -0.31143 39941 ft 477 kts 338°
2026-05-04 16:53 45.75785 -0.35635 39930 ft 478 kts 340°
2026-05-04 16:54 45.88463 -0.41325 39927 ft 478 kts 340°
2026-05-04 16:55 46.07538 -0.49999 39931 ft 480 kts 340°
2026-05-04 16:56 46.23448 -0.57288 39933 ft 480 kts 340°
2026-05-04 16:57 46.32964 -0.61668 39933 ft 480 kts 340°
2026-05-04 16:58 46.45885 -0.66698 39938 ft 482 kts 349°
2026-05-04 17:00 46.65910 -0.70146 39945 ft 482 kts 352°
2026-05-04 17:01 46.82545 -0.72945 39943 ft 482 kts 351°
2026-05-04 17:02 46.95836 -0.75207 39945 ft 482 kts 351°
2026-05-04 17:03 47.05833 -0.76914 39944 ft 481 kts 351°
2026-05-04 17:03 47.15814 -0.78626 39942 ft 481 kts 351°
2026-05-04 17:04 47.29108 -0.80915 39945 ft 481 kts 352°
2026-05-04 17:05 47.42409 -0.83217 39947 ft 481 kts 352°
2026-05-04 17:06 47.52341 -0.84944 39933 ft 481 kts 352°
2026-05-04 17:07 47.61134 -0.87004 39939 ft 480 kts 348°
2026-05-04 17:07 47.68816 -0.89129 39941 ft 480 kts 348°
2026-05-04 17:08 47.78668 -0.91805 39942 ft 480 kts 348°
2026-05-04 17:09 47.85193 -0.93548 39964 ft 479 kts 348°
2026-05-04 17:09 47.91759 -0.95301 39947 ft 479 kts 348°
2026-05-04 17:10 48.08177 -0.99709 39955 ft 479 kts 348°
2026-05-04 17:11 48.14689 -1.01467 39952 ft 478 kts 348°
2026-05-04 17:12 48.24513 -1.04127 39958 ft 478 kts 348°
2026-05-04 17:13 48.40923 -1.08593 39953 ft 479 kts 348°
2026-05-04 17:14 48.53992 -1.12171 39962 ft 478 kts 348°
2026-05-04 17:15 48.63818 -1.14874 39970 ft 478 kts 348°
2026-05-04 17:16 48.76876 -1.18481 39974 ft 475 kts 348°
2026-05-04 17:17 48.89851 -1.22087 39971 ft 475 kts 348°
2026-05-04 17:18 49.02879 -1.25724 39974 ft 475 kts 348°
2026-05-04 17:19 49.15892 -1.29378 39982 ft 474 kts 348°
2026-05-04 17:20 49.27765 -1.32728 39988 ft 474 kts 348°
2026-05-04 17:20 49.38554 -1.35786 39988 ft 474 kts 348°
2026-05-04 17:21 49.50420 -1.39166 39992 ft 474 kts 348°
2026-05-04 17:22 49.56911 -1.40985 39991 ft 473 kts 351°
2026-05-04 17:23 49.66788 -1.41058 39994 ft 474 kts
2026-05-04 17:23 49.70085 -1.40787 39994 ft 474 kts
2026-05-04 17:24 49.79969 -1.39853 39989 ft 473 kts
2026-05-04 17:25 49.93118 -1.38656 39984 ft 473 kts
2026-05-04 17:26 50.06164 -1.36537 39975 ft 472 kts
2026-05-04 17:27 50.22434 -1.32477 39989 ft 473 kts
2026-05-04 17:28 50.35378 -1.29226 39989 ft 472 kts
2026-05-04 17:29 50.54306 -1.21428 39987 ft 472 kts 30°
2026-05-04 17:31 50.68201 -1.07715 39992 ft 473 kts 33°
2026-05-04 17:32 50.82201 -0.94123 39991 ft 472 kts 23°
2026-05-04 17:33 50.94566 -0.87274 39995 ft 473 kts 18°
2026-05-04 17:34 51.07099 -0.80847 40022 ft 472 kts 18°
2026-05-04 17:35 51.22700 -0.72699 40023 ft 472 kts 18°
2026-05-04 17:36 51.28908 -0.69438 40027 ft 472 kts 18°
2026-05-04 17:36 51.35168 -0.66141 40013 ft 472 kts 18°
2026-05-04 17:37 51.41408 -0.62845 40016 ft 473 kts 18°
2026-05-04 17:37 51.47656 -0.59535 40018 ft 473 kts 18°
2026-05-04 17:38 51.53911 -0.56212 40026 ft 473 kts 18°
2026-05-04 17:38 51.60154 -0.52886 40017 ft 473 kts 18°
2026-05-04 17:39 51.69525 -0.47875 40042 ft 473 kts 18°
2026-05-04 17:39 51.75827 -0.45153 40041 ft 471 kts
2026-05-04 17:40 51.79102 -0.44828 39570 ft 474 kts 357°
2026-05-04 17:40 51.82380 -0.45463 38987 ft 475 kts 346°
2026-05-04 17:40 51.85522 -0.47091 38428 ft 473 kts 335°
2026-05-04 17:40 51.88440 -0.49490 37895 ft 469 kts 330°
2026-05-04 17:41 51.91258 -0.52100 37421 ft 465 kts 328°
2026-05-04 17:41 51.94017 -0.54792 36934 ft 461 kts 327°
2026-05-04 17:41 51.96745 -0.57512 36463 ft 458 kts 327°
2026-05-04 17:41 51.99448 -0.60217 35988 ft 455 kts 327°
2026-05-04 17:42 52.02138 -0.62900 35484 ft 452 kts 327°
2026-05-04 17:42 52.04817 -0.65558 34984 ft 451 kts 327°
2026-05-04 17:42 52.07500 -0.68209 34313 ft 453 kts 327°
2026-05-04 17:42 52.10201 -0.70873 33517 ft 456 kts 327°
2026-05-04 17:43 52.12887 -0.73518 32801 ft 456 kts 327°
2026-05-04 17:43 52.15605 -0.76196 32074 ft 456 kts 327°
2026-05-04 17:43 52.18317 -0.78872 31321 ft 457 kts 327°
2026-05-04 17:43 52.21037 -0.81559 30638 ft 456 kts 327°
2026-05-04 17:44 52.23729 -0.84223 30139 ft 450 kts 327°
2026-05-04 17:44 52.26397 -0.86866 29525 ft 446 kts 327°
2026-05-04 17:44 52.29029 -0.89479 28966 ft 440 kts 327°
2026-05-04 17:44 52.31632 -0.92067 28435 ft 435 kts 326°
2026-05-04 17:45 52.34206 -0.94629 27864 ft 430 kts 326°
2026-05-04 17:45 52.36744 -0.97160 27338 ft 425 kts 326°
2026-05-04 17:45 52.39261 -0.99674 26812 ft 421 kts 326°
2026-05-04 17:45 52.41748 -1.02160 26262 ft 418 kts 326°
2026-05-04 17:46 52.44221 -1.04637 25698 ft 414 kts 325°
2026-05-04 17:46 52.46650 -1.07072 25181 ft 411 kts 325°
2026-05-04 17:46 52.49079 -1.09511 24648 ft 408 kts 324°
2026-05-04 17:46 52.51496 -1.11941 24115 ft 405 kts 324°
2026-05-04 17:47 52.53889 -1.14350 23587 ft 402 kts 324°
2026-05-04 17:47 52.56268 -1.16749 23003 ft 399 kts 325°
2026-05-04 17:47 52.58618 -1.19121 22488 ft 393 kts 325°
2026-05-04 17:47 52.60934 -1.21462 21972 ft 389 kts 325°
2026-05-04 17:48 52.63237 -1.23792 21460 ft 384 kts 325°
2026-05-04 17:48 52.65506 -1.26090 20957 ft 381 kts 325°
2026-05-04 17:48 52.66997 -1.27602 20619 ft 379 kts 326°
2026-05-04 17:48 52.69959 -1.30610 20093 ft 377 kts 326°
2026-05-04 17:49 52.72191 -1.32881 19577 ft 378 kts 326°
2026-05-04 17:49 52.74422 -1.35154 19123 ft 376 kts 326°
2026-05-04 17:49 52.76644 -1.37419 18666 ft 373 kts 326°
2026-05-04 17:49 52.78837 -1.39658 18201 ft 369 kts 327°
2026-05-04 17:50 52.81010 -1.41878 17743 ft 365 kts 326°
2026-05-04 17:50 52.83164 -1.44082 17277 ft 363 kts 326°
2026-05-04 17:50 52.85307 -1.46277 16840 ft 361 kts 327°
2026-05-04 17:50 52.87434 -1.48459 16401 ft 358 kts 327°
2026-05-04 17:51 52.89537 -1.50619 15970 ft 355 kts 327°
2026-05-04 17:51 52.91634 -1.52775 15543 ft 353 kts 327°
2026-05-04 17:51 52.93710 -1.54912 15099 ft 351 kts 327°
2026-05-04 17:51 52.95779 -1.57044 14690 ft 348 kts 327°
2026-05-04 17:52 52.97837 -1.59133 14279 ft 346 kts 330°
2026-05-04 17:52 53.00027 -1.60794 13841 ft 345 kts 338°
2026-05-04 17:52 53.02288 -1.62098 13354 ft 342 kts 340°
2026-05-04 17:52 53.04529 -1.63344 12888 ft 337 kts 340°
2026-05-04 17:53 53.06736 -1.64569 12423 ft 331 kts 340°
2026-05-04 17:53 53.08909 -1.65778 11959 ft 326 kts 340°
2026-05-04 17:53 53.11047 -1.66970 11505 ft 321 kts 340°
2026-05-04 17:53 53.13164 -1.68154 11068 ft 323 kts 340°
2026-05-04 17:54 53.15307 -1.69357 10621 ft 326 kts 340°
2026-05-04 17:54 53.17454 -1.70567 10180 ft 325 kts 340°
2026-05-04 17:54 53.19586 -1.71773 9732 ft 321 kts 340°
2026-05-04 17:54 53.21685 -1.72966 9263 ft 315 kts 340°
2026-05-04 17:55 53.23739 -1.74139 8780 ft 309 kts 340°
2026-05-04 17:55 53.25720 -1.75265 8398 ft 292 kts 340°
2026-05-04 17:55 53.27559 -1.76300 8088 ft 271 kts 340°
2026-05-04 17:55 53.29297 -1.77279 7764 ft 255 kts 340°
2026-05-04 17:56 53.30932 -1.78205 7471 ft 247 kts 340°
2026-05-04 17:56 53.32564 -1.79136 7164 ft 246 kts 340°
2026-05-04 17:56 53.34172 -1.80059 7049 ft 243 kts 340°
2026-05-04 17:56 53.35772 -1.80977 7045 ft 243 kts 340°
2026-05-04 17:57 53.37358 -1.81890 7040 ft 240 kts 340°
2026-05-04 17:57 53.38933 -1.82799 7038 ft 239 kts 340°
2026-05-04 17:57 53.40490 -1.83695 7041 ft 239 kts 340°
2026-05-04 17:57 53.42082 -1.84615 7039 ft 239 kts 340°
2026-05-04 17:58 53.43649 -1.85535 7044 ft 239 kts 340°
2026-05-04 17:58 53.45202 -1.86438 7044 ft 239 kts 340°
2026-05-04 17:58 53.46773 -1.87348 6897 ft 239 kts 340°
2026-05-04 17:58 53.48330 -1.88259 6625 ft 235 kts 340°
2026-05-04 17:59 53.49834 -1.89282 6245 ft 232 kts 328°
2026-05-04 17:59 53.50851 -1.91265 6055 ft 224 kts 292°
2026-05-04 17:59 53.50411 -1.96100 5794 ft 205 kts 245°
2026-05-04 18:00 53.49636 -1.98088 5438 ft 205 kts 234°
2026-05-04 18:00 53.48714 -1.99981 4781 ft 214 kts 233°
2026-05-04 18:00 53.47769 -2.01918 4266 ft 213 kts 233°
2026-05-04 18:00 53.46838 -2.03835 3813 ft 211 kts 233°
2026-05-04 18:01 53.45920 -2.05734 3357 ft 207 kts 232°
2026-05-04 18:01 53.45035 -2.07574 3062 ft 197 kts 232°
2026-05-04 18:01 53.44191 -2.09321 2818 ft 187 kts 233°
2026-05-04 18:02 53.42622 -2.12559 2330 ft 169 kts 235°
2026-05-04 18:02 53.41899 -2.14055 2113 ft 164 kts 233°
2026-05-04 18:02 53.41192 -2.15515 1894 ft 163 kts 235°
2026-05-04 18:02 53.40472 -2.17002 1682 ft 162 kts 235°
2026-05-04 18:03 53.39771 -2.18448 1456 ft 161 kts 234°
2026-05-04 18:03 53.39077 -2.19878 1228 ft 153 kts 234°
2026-05-04 18:03 53.38426 -2.21222 998 ft 144 kts 232°
2026-05-04 18:03 53.37807 -2.22479 793 ft 135 kts 232°
2026-05-04 18:04 53.37225 -2.23660 628 ft 127 kts 231°
2026-05-04 18:04 53.36679 -2.24802 451 ft 124 kts 231°
2026-05-04 18:04 53.35640 -2.26951 264 ft 86 kts 231°
2026-05-04 18:05 53.35416 -2.27412 248 ft 30 kts 231°
2026-05-04 18:05 53.35300 -2.27679 244 ft 28 kts 243°
2026-05-04 18:05 53.35260 -2.27884 240 ft 10 kts 256°
2026-05-04 18:05 53.35244 -2.28024 240 ft 7 kts 261°
2026-05-04 18:06 53.35236 -2.28166 236 ft 8 kts 282°
2026-05-04 18:06 53.35273 -2.28208 239 ft 6 kts
2026-05-04 18:06 53.35309 -2.28157 238 ft 8 kts 45°
2026-05-04 18:07 53.35361 -2.28072 240 ft 12 kts 44°
2026-05-04 18:07 53.35433 -2.27960 241 ft 15 kts 39°
2026-05-04 18:07 53.35534 -2.27910 241 ft 17 kts
2026-05-04 18:07 53.35649 -2.27890 246 ft 13 kts
2026-05-04 18:08 53.35737 -2.27875 250 ft 12 kts
2026-05-04 18:08 53.35821 -2.27861 255 ft 12 kts
2026-05-04 18:08 53.35900 -2.27849 259 ft 12 kts
2026-05-04 18:08 53.36001 -2.27912 259 ft 17 kts 319°
2026-05-04 18:09 53.36158 -2.28154 259 ft 15 kts 313°
2026-05-04 18:09 53.36262 -2.28331 259 ft 10 kts 315°
2026-05-04 18:10 53.36292 -2.28381 259 ft 1 kts 315°
2026-05-04 18:10 53.36314 -2.28417 259 ft 9 kts 315°
2026-05-04 18:10 53.36386 -2.28447 259 ft 12 kts 23°
2026-05-04 18:10 53.36454 -2.28346 259 ft 14 kts 45°
2026-05-04 18:11 53.36527 -2.28224 259 ft 14 kts 45°
2026-05-04 18:11 53.36536 -2.28085 259 ft 13 kts 125°
2026-05-04 18:11 53.36460 -2.27976 259 ft 13 kts 140°
2026-05-04 18:11 53.36404 -2.27883 259 ft 9 kts 136°
2026-05-04 18:12 53.36361 -2.27810 259 ft 9 kts 129°
2026-05-04 18:12 53.36369 -2.27728 259 ft 8 kts 48°
2026-05-04 18:12 53.36397 -2.27682 259 ft 2 kts 45°
2026-05-04 18:12 53.36405 -2.27669 259 ft 1 kts 45°
2026-05-04 18:13 53.36405 -2.27668 259 ft 0 kts 45°